This is the latest recevied weather packets stored in our database for station/object WX7FGZ-6. If no packets are shown the sender has not sent any weather packets the latest 10 day(s).
| Time | Temp. | Humidity | Pressure | Rain* | Wind** | Luminosity | Snow |
|---|---|---|---|---|---|---|---|
| 1777964762 | -3.89° C | 71% | 1013.4 hPa | 0 mm | - | - | - |
| 1777964249 | -3.89° C | 70% | 1013.5 hPa | 0 mm | - | - | - |
| 1777963949 | -3.89° C | 70% | 1013.5 hPa | 0 mm | - | - | - |
| 1777963650 | -3.89° C | 73% | 1013.6 hPa | 0 mm | - | - | - |
| 1777963457 | -3.89° C | 76% | 1014.1 hPa | 0 mm | - | - | - |
| 1777963350 | -3.89° C | 76% | 1014.1 hPa | 0 mm | - | - | - |
| 1777962774 | -3.89° C | 80% | 1014.3 hPa | 0 mm | - | - | - |
| 1777962474 | -3.89° C | 82% | 1014.2 hPa | 0 mm | - | - | - |
| 1777962174 | -3.89° C | 82% | 1014.2 hPa | 0 mm | - | - | - |
| 1777961875 | -3.89° C | 82% | 1014.1 hPa | 0 mm | - | - | - |
| 1777961595 | -3.89° C | 82% | 1014.2 hPa | 0 mm | - | - | - |
| 1777961320 | -3.89° C | 82% | 1014.2 hPa | 0 mm | - | - | - |
| 1777961020 | -3.33° C | 82% | 1014.2 hPa | 0 mm | - | - | - |
| 1777960720 | -3.33° C | 82% | 1014.1 hPa | 0 mm | - | - | - |
| 1777960680 | -3.33° C | 80% | 1014.3 hPa | 0 mm | - | - | - |
| 1777960419 | -3.33° C | 80% | 1014.3 hPa | 0 mm | - | - | - |
| 1777960119 | -3.33° C | 78% | 1014.5 hPa | 0 mm | - | - | - |
| 1777959820 | -3.33° C | 76% | 1014.3 hPa | 0 mm | - | - | - |
| 1777959520 | -3.33° C | 74% | 1014.3 hPa | 0 mm | - | - | - |
| 1777959399 | -3.33° C | 71% | 1014.5 hPa | 0 mm | - | - | - |
| 1777959220 | -3.33° C | 71% | 1014.5 hPa | 0 mm | - | - | - |
| 1777958920 | -3.33° C | 70% | 1014.7 hPa | 0 mm | - | - | - |
| 1777958620 | -3.33° C | 71% | 1014.3 hPa | 0 mm | - | - | - |
| 1777958320 | -3.33° C | 72% | 1014.5 hPa | 0 mm | - | - | - |
| 1777957948 | -2.78° C | 74% | 1014.7 hPa | 0 mm | - | - | - |
* Rain latest hour (hover to see other rain measurements)
** Current wind speed in m/s (hover to see current wind gust speed)